15min,AgWx,evansfrm,411,05AUG2017:00:00:00,67.1,12.96,67.4,67.3,67.3,68.2,66.6,50,53,46,1.127,48.1,50.0,46.5,0,2.6,41,65,6.2,0.00007,0.00014,84.7,81.5,12,0,0,66.2,3.14,.,0.00
15min,AgWx,evansfrm,411,05AUG2017:00:15:00,67.2,12.95,67.0,66.8,67.0,67.7,66.4,51,55,48,1.182,48.4,49.8,47.0,3.003,3.1,153,36,6.6,0.00011,0.00021,84.5,81.5,12,0,0,66.6,3.14,.,0.00
15min,AgWx,evansfrm,411,05AUG2017:00:30:00,67.5,12.95,68.6,68.7,68.2,69.1,66.8,48,54,45,1.110,47.9,49.5,46.8,5.086,5.2,156,12,7.1,0.00036,0.00052,84.0,81.5,12,0,0,67.8,3.14,.,0.00
15min,AgWx,evansfrm,411,05AUG2017:00:45:00,67.8,12.95,70.3,70.2,69.4,70.7,68.2,44,49,40,1.016,46.7,48.5,45.0,7.826,4.5,163,16,7.9,0.00033,0.00050,83.7,81.3,12,0,0,68.6,3.14,.,0.00
15min,AgWx,evansfrm,411,05AUG2017:01:00:00,68.3,12.94,71.3,71.2,70.9,71.6,70.4,40,42,38,1.048,45.5,46.4,44.4,5.415,5.7,154,19,8.7,0.00051,0.00073,83.5,81.1,12,0,0,69.8,3.14,.,0.00
15min,AgWx,evansfrm,411,05AUG2017:01:15:00,69.2,12.94,75.7,75.6,74.7,76.6,71.4,38,40,36,1.119,47.5,48.4,45.9,7.541,6.1,141,8.1,9.9,0.00061,0.00088,83.2,80.8,12,0,0,73.0,3.14,.,0.00
15min,AgWx,evansfrm,411,05AUG2017:01:30:00,69.7,12.93,71.7,71.9,73.1,76.1,71.0,41,44,37,1.097,48.1,48.8,47.0,3.639,4.6,173,19,7.9,0.00041,0.00063,82.9,80.8,12,0,0,71.4,3.15,.,0.00
15min,AgWx,evansfrm,411,05AUG2017:01:45:00,69.5,12.93,69.0,69.0,70.3,72.2,68.8,45,47,41,1.114,47.9,48.5,47.1,5.546,4.3,166,10,6.0,0.00031,0.00048,82.8,80.8,12,0,0,68.7,3.16,.,0.00
15min,AgWx,evansfrm,411,05AUG2017:02:00:00,69.2,12.93,69.1,69.1,69.6,70.5,69.1,43,46,42,1.058,46.2,47.2,45.4,4.45,5.9,172,9.6,7.3,0.00048,0.00069,82.4,80.4,12,0,0,68.5,3.15,.,0.00
15min,AgWx,evansfrm,411,05AUG2017:02:15:00,69.1,12.92,70.5,70.4,69.9,70.8,68.4,43,45,41,1.052,46.1,46.9,45.3,4.516,5.5,156,13,9.1,0.00046,0.00066,82.1,80.2,12,0,0,68.6,3.15,.,0.00
15min,AgWx,evansfrm,411,05AUG2017:02:30:00,69.0,12.92,70.4,70.6,70.2,70.7,69.3,42,44,41,1.074,46.3,46.9,45.6,4.253,4.4,155,13,6.8,0.00035,0.00053,82.0,80.2,12,0,0,68.6,3.15,.,0.00
15min,AgWx,evansfrm,411,05AUG2017:02:45:00,69.2,12.92,73.6,73.5,72.4,73.9,70.5,40,43,38,1.080,46.6,47.1,46.0,7.453,6.8,151,12,11.8,0.00063,0.00088,81.6,80.2,12,0,0,70.7,3.14,.,0.00
15min,AgWx,evansfrm,411,05AUG2017:03:00:00,69.5,12.91,72.1,72.1,72.2,73.7,71.5,40,42,39,1.072,46.8,47.4,46.2,7.168,5.0,152,9.9,8.0,0.00044,0.00066,81.4,80.1,12,0,0,70.4,3.15,.,0.00
15min,AgWx,evansfrm,411,05AUG2017:03:15:00,69.6,12.86,71.6,71.8,71.7,72.2,71.1,41,43,40,1.106,47.0,47.7,46.3,4.779,5.3,156,9.0,7.1,0.00047,0.00069,81.2,79.9,12,0,0,70.0,3.15,.,0.00
15min,AgWx,evansfrm,411,05AUG2017:03:30:00,69.5,12.91,72.5,72.5,71.8,72.5,70.9,42,43,40,1.095,47.2,47.6,47.0,7.3,4.8,156,8.6,7.3,0.00041,0.00061,80.9,79.7,12,0,0,69.7,3.15,.,0.00
15min,AgWx,evansfrm,411,05AUG2017:03:45:00,69.6,12.9,73.5,74.0,72.5,74.0,71.8,41,43,39,1.127,47.6,48.2,47.0,5.809,5.5,161,9.1,7.5,0.00049,0.00072,80.7,79.3,12,0,0,70.9,3.15,.,0.00
15min,AgWx,evansfrm,411,05AUG2017:04:00:00,70.1,12.89,73.2,73.0,74.0,74.7,73.0,39,41,38,1.151,47.8,48.3,47.3,4.582,6.2,158,7.8,10.1,0.00060,0.00086,80.5,79.5,12,0,0,72.6,3.15,.,0.00
15min,AgWx,evansfrm,411,05AUG2017:04:15:00,70.0,12.89,70.7,70.6,71.9,73.0,70.6,42,44,41,1.108,47.5,48.2,46.7,2.981,3.3,177,21,5.1,0.00023,0.00038,80.4,79.3,12,0,0,69.8,3.16,.,0.00
15min,AgWx,evansfrm,411,05AUG2017:04:30:00,69.4,12.88,69.6,70.0,69.5,70.5,68.7,45,47,43,1.110,47.5,47.9,47.1,5.217,3.1,146,18,5.5,0.00017,0.00029,80.2,79.3,12,0,0,67.2,3.16,.,0.00
15min,AgWx,evansfrm,411,05AUG2017:04:45:00,69.0,12.88,69.2,69.0,70.0,70.6,69.0,44,45,42,1.078,47.1,47.8,46.4,5.897,5.4,148,12,8.5,0.00043,0.00063,79.9,79.0,12,0,0,68.2,3.15,.,0.00
15min,AgWx,evansfrm,411,05AUG2017:05:00:00,68.5,12.87,67.2,67.1,67.8,69.0,67.0,46,48,45,1.067,46.5,47.1,46.0,4.823,5.8,149,11,7.4,0.00042,0.00060,79.7,79.0,12,0,0,66.3,3.16,.,0.00
15min,AgWx,evansfrm,411,05AUG2017:05:15:00,67.6,12.86,66.0,66.1,66.1,67.0,65.6,50,51,47,1.094,46.7,47.1,46.2,3.266,4.2,159,8.7,5.4,0.00024,0.00038,79.6,78.8,12,0,0,64.6,3.16,.,0.00
15min,AgWx,evansfrm,411,05AUG2017:05:30:00,66.6,12.86,65.8,66.4,65.5,66.5,64.7,52,54,50,1.135,47.5,47.9,46.9,2.631,2.7,161,10,3.6,0.00008,0.00016,79.5,78.8,12,5,0,64.0,3.16,.,0.00
15min,AgWx,evansfrm,411,05AUG2017:05:45:00,65.7,12.86,65.7,65.9,66.1,66.6,65.6,51,53,50,1.125,47.7,48.4,47.1,3.42,3.0,163,3.0,4.6,0.00001,0.00032,79.1,78.8,12,13,0,64.9,3.16,.,0.00
15min,AgWx,evansfrm,411,05AUG2017:06:00:00,65.3,12.86,65.3,65.2,65.9,66.8,65.1,52,55,50,1.156,48.1,48.8,47.4,3.091,2.9,176,17,3.9,0.00019,0.00049,79.1,78.4,12,25,0,65.2,3.16,.,0.00
15min,AgWx,evansfrm,411,05AUG2017:06:15:00,65.1,12.87,66.8,66.7,66.9,68.0,65.1,51,55,49,1.167,48.2,49.0,47.7,2.938,3.8,151,17,5.2,0.00061,0.00104,78.8,78.4,12,29,0,66.6,3.15,.,0.00
15min,AgWx,evansfrm,411,05AUG2017:06:30:00,65.1,12.89,67.3,67.2,67.4,68.7,66.5,52,55,48,1.193,49.1,50.2,48.0,3.398,3.2,162,15,4.7,0.00063,0.00100,78.5,78.1,12,45,0,67.3,3.16,.,0.00
15min,AgWx,evansfrm,411,05AUG2017:06:45:00,67.2,12.92,71.2,71.0,70.5,71.5,67.4,48,52,45,1.242,49.7,51.5,49.0,3.42,4.4,156,22,6.9,0.00106,0.00163,78.5,78.1,12,147,0,72.3,3.14,.,0.00
15min,AgWx,evansfrm,411,05AUG2017:07:00:00,70.0,12.97,73.8,73.9,72.4,74.0,71.1,46,48,43,1.255,50.3,51.5,49.4,6.204,4.2,161,14,7.3,0.00136,0.00195,78.3,78.1,12,184,0,75.9,3.14,.,0.00
15min,AgWx,evansfrm,411,05AUG2017:07:15:00,72.5,13.05,74.6,74.6,73.9,74.6,73.4,44,46,42,1.236,50.6,52.0,49.3,5.722,5.5,161,9.7,8.9,0.00189,0.00269,78.1,77.9,12,231,0,78.7,3.15,.,0.00
15min,AgWx,evansfrm,411,05AUG2017:07:30:00,74.7,13.21,75.9,75.9,75.2,75.9,74.6,42,45,40,1.241,50.7,52.5,49.6,4.187,5.4,155,10,7.7,0.00222,0.00306,78.0,77.9,12,273,0,81.8,3.15,.,0.00
15min,AgWx,evansfrm,411,05AUG2017:07:45:00,76.9,13.52,78.3,78.4,77.0,78.4,75.9,41,45,37,1.260,51.3,53.2,49.4,3.968,4.6,152,13,6.3,0.00247,0.00326,77.9,77.9,12,318,0,85.8,3.15,.,0.00
15min,AgWx,evansfrm,411,05AUG2017:08:00:00,79.4,13.72,79.5,79.4,79.1,79.7,78.3,38,41,35,1.270,51.0,53.4,49.5,5.634,4.5,154,30,8.9,0.00286,0.00371,77.7,77.5,12,364,0,90.6,3.16,.,0.00
15min,AgWx,evansfrm,411,05AUG2017:08:15:00,81.7,13.82,80.8,80.6,79.9,80.6,79.4,38,41,36,1.308,52.3,54.0,50.2,2.368,4.5,186,40,9.4,0.00320,0.00407,77.9,77.5,12,407,0,93.4,3.15,.,0.00
15min,AgWx,evansfrm,411,05AUG2017:08:30:00,84.0,13.95,80.7,80.7,80.5,80.9,80.1,38,40,35,1.271,52.3,53.8,51.0,6.489,5.6,209,22,12.7,0.00368,0.00473,77.8,77.4,12,451,0,96.3,3.16,.,0.00
15min,AgWx,evansfrm,411,05AUG2017:08:45:00,85.8,14.09,81.7,80.9,80.8,81.3,80.1,37,40,35,1.431,51.9,54.4,50.3,3.551,4.7,213,37,8.9,0.00388,0.00485,78.0,77.2,12,492,0,98.8,3.15,.,0.00
15min,AgWx,evansfrm,411,05AUG2017:09:00:00,87.6,14.09,81.4,81.3,81.0,81.6,80.4,38,42,36,1.335,53.1,55.8,51.9,7.76,4.7,213,35,10.9,0.00412,0.00508,78.0,77.2,12,524,0,102.4,3.16,.,0.00
15min,AgWx,evansfrm,411,05AUG2017:09:15:00,88.6,14.06,81.6,81.0,81.3,82.0,80.4,37,39,35,1.317,52.3,53.9,51.1,4.516,6.6,213,15,10.4,0.00459,0.00587,78.4,77.2,12,548,0,101.1,3.16,.,0.00
15min,AgWx,evansfrm,411,05AUG2017:09:30:00,90.1,14.05,83.1,82.0,81.8,82.4,81.1,36,39,33,1.404,51.9,54.7,50.2,4.143,3.5,231,37,6.7,0.00455,0.00540,78.6,77.2,12,601,0,108.6,3.15,.,0.00
15min,AgWx,evansfrm,411,05AUG2017:09:45:00,91.2,14.05,83.2,82.5,82.1,82.9,81.3,37,41,35,1.421,53.1,55.7,51.6,3.464,4.4,247,39,8.7,0.00499,0.00600,79.0,77.0,12,643,0,109.8,3.16,.,0.00
15min,AgWx,evansfrm,411,05AUG2017:10:00:00,92.0,14.05,83.6,83.5,83.1,83.7,82.6,35,39,33,1.299,53.0,55.4,51.4,7.76,6.3,216,22,12.0,0.00554,0.00686,79.3,76.8,12,679,0,109.1,3.16,.,0.00
15min,AgWx,evansfrm,411,05AUG2017:10:15:00,92.6,14.02,83.7,83.4,83.3,84.2,82.8,33,36,30,1.270,51.6,54.1,48.5,5.809,5.7,228,21,10.1,0.00576,0.00706,79.8,77.0,12,714,0,111.7,3.16,.,0.00
15min,AgWx,evansfrm,411,05AUG2017:10:30:00,92.8,14.02,83.7,83.7,83.6,84.4,82.9,34,36,32,1.354,52.3,53.9,50.8,7.147,7.7,208,20,11.9,0.00622,0.00781,80.3,77.0,12,744,0,110.3,3.16,.,0.00
15min,AgWx,evansfrm,411,05AUG2017:10:45:00,93.0,14.03,84.3,84.3,83.8,84.6,83.2,34,36,31,1.240,52.2,53.8,50.3,8.35,8.2,213,14,11.7,0.00649,0.00817,80.9,77.0,12,774,0,111.2,3.16,.,0.00
15min,AgWx,evansfrm,411,05AUG2017:11:00:00,93.3,14.01,85.6,85.5,84.8,85.8,84.0,32,34,30,1.383,51.8,54.1,49.2,11.38,6.3,210,20,11.4,0.00648,0.00794,81.4,77.0,12,793,0,115.9,3.16,.,0.00
15min,AgWx,evansfrm,411,05AUG2017:11:15:00,93.6,14.02,85.9,85.8,85.3,85.9,84.7,31,35,27,1.189,51.0,54.9,48.0,3.683,6.6,224,26,11.8,0.00675,0.00832,81.9,77.0,12,815,0,116.5,3.16,.,0.00
15min,AgWx,evansfrm,411,05AUG2017:11:30:00,93.8,14,85.8,85.5,85.7,86.5,84.9,30,32,28,1.284,50.5,52.3,48.6,10.37,6.3,224,21,10.9,0.00686,0.00838,82.5,77.0,12,834,0,118.9,3.16,.,0.00
15min,AgWx,evansfrm,411,05AUG2017:11:45:00,93.5,14,86.2,86.1,85.8,87.0,84.9,31,33,28,1.331,51.4,53.1,48.9,6.27,7.6,219,18,11.3,0.00716,0.00890,83.1,77.0,12,852,0,117.2,3.16,.,0.00
15min,AgWx,evansfrm,411,05AUG2017:12:00:00,92.8,14,86.5,86.2,86.1,86.8,85.1,29,32,27,1.195,50.6,53.1,48.2,4.757,7.2,227,23,14.6,0.00722,0.00892,83.7,77.4,12,862,0,118.3,3.16,.,0.00
15min,AgWx,evansfrm,411,05AUG2017:12:15:00,92.2,14.02,87.2,87.2,86.8,88.5,85.7,28,32,25,1.107,49.7,52.4,47.3,8.64,6.0,214,22,12.0,0.00725,0.00880,84.5,77.2,12,883,0,122.6,3.16,.,0.00
15min,AgWx,evansfrm,411,05AUG2017:12:30:00,91.6,14,87.1,86.6,87.3,88.3,86.4,28,31,25,1.206,50.3,52.7,46.9,3.705,6.2,237,28,11.6,0.00735,0.00895,85.2,77.5,12,887,0,122.0,3.17,.,0.00
15min,AgWx,evansfrm,411,05AUG2017:12:45:00,91.1,13.99,87.5,87.3,87.5,88.3,86.6,27,30,24,1.150,49.4,51.7,46.7,10.65,8.1,214,16,12.6,0.00761,0.00952,85.7,77.7,12,886,0,119.9,3.16,.,0.00
15min,AgWx,evansfrm,411,05AUG2017:13:00:00,90.9,13.98,87.5,87.3,88.0,89.3,87.1,25,28,22,1.174,48.3,50.6,44.9,6.489,7.3,213,17,11.0,0.00754,0.00938,86.5,77.7,12,879,0,120.2,3.16,.,0.00
15min,AgWx,evansfrm,411,05AUG2017:13:15:00,90.9,13.96,87.9,87.7,87.6,88.5,87.1,26,29,24,1.082,48.7,51.3,46.7,3.727,7.3,232,19,11.3,0.00744,0.00926,87.0,77.9,12,871,0,120.0,3.16,.,0.00
15min,AgWx,evansfrm,411,05AUG2017:13:30:00,91.3,13.96,89.2,89.1,88.2,89.1,87.3,25,27,23,1.188,47.7,50.1,46.1,6.489,7.8,209,15,11.8,0.00750,0.00941,87.8,78.1,12,862,0,119.5,3.16,.,0.00
15min,AgWx,evansfrm,411,05AUG2017:13:45:00,92.0,13.92,89.0,88.8,88.7,89.9,87.8,25,27,22,1.202,48.0,50.9,45.0,7.432,8.1,198,20,12.8,0.00748,0.00945,88.4,78.4,12,847,0,118.4,3.15,.,0.00
15min,AgWx,evansfrm,411,05AUG2017:14:00:00,92.8,13.92,88.5,88.3,88.4,89.7,87.7,24,26,22,1.091,47.0,49.5,45.2,8.48,8.9,192,16,13.3,0.00746,0.00958,89.0,78.4,12,828,0,116.1,3.15,.,0.00
15min,AgWx,evansfrm,411,05AUG2017:14:15:00,93.5,13.92,88.3,88.3,88.6,89.3,87.9,24,26,22,1.057,47.0,48.9,45.5,8.75,9.3,197,21,13.0,0.00742,0.00960,89.6,78.8,12,810,0,115.0,3.15,.,0.00
15min,AgWx,evansfrm,411,05AUG2017:14:30:00,94.4,13.89,89.3,89.5,88.7,89.9,87.8,23,26,21,1.118,46.1,50.1,44.0,10.54,8.2,209,24,13.9,0.00713,0.00914,90.1,78.8,12,793,0,116.3,3.15,.,0.00
15min,AgWx,evansfrm,411,05AUG2017:14:45:00,95.4,13.87,89.0,88.9,89.1,90.0,88.3,22,24,21,1.042,45.5,48.0,43.6,8.83,8.3,191,21,13.8,0.00698,0.00902,90.6,79.3,12,762,0,114.9,3.14,.,0.00
15min,AgWx,evansfrm,411,05AUG2017:15:00:00,96.2,13.86,89.7,89.9,89.4,90.6,88.3,22,24,20,1.121,45.0,48.0,42.5,7.366,7.7,190,15,10.9,0.00667,0.00861,91.3,79.5,12,728,0,114.0,3.14,.,0.00
15min,AgWx,evansfrm,411,05AUG2017:15:15:00,96.9,13.86,89.4,89.5,89.6,90.2,89.0,21,23,20,1.091,44.8,47.4,43.0,7.892,7.7,199,15,13.7,0.00648,0.00841,91.7,79.7,12,701,0,113.0,3.14,.,0.00
15min,AgWx,evansfrm,411,05AUG2017:15:30:00,97.4,13.85,89.9,90.1,89.7,90.5,88.8,21,23,19,0.947,44.2,46.7,41.5,8.2,7.5,193,19,12.6,0.00623,0.00813,92.2,79.9,12,670,0,112.1,3.14,.,0.00
15min,AgWx,evansfrm,411,05AUG2017:15:45:00,97.7,13.84,90.6,90.7,90.0,91.0,89.3,20,23,18,0.936,44.0,47.1,41.2,4.034,6.9,205,19,11.4,0.00586,0.00764,92.7,80.1,12,631,0,110.9,3.14,.,0.00
15min,AgWx,evansfrm,411,05AUG2017:16:00:00,97.7,13.84,89.9,90.2,89.7,90.7,89.0,20,22,18,0.964,43.6,45.9,40.6,5.239,6.7,216,15,11.1,0.00549,0.00721,92.8,80.4,12,588,0,109.1,3.14,.,0.00
15min,AgWx,evansfrm,411,05AUG2017:16:15:00,97.6,13.83,89.8,89.8,90.0,90.7,89.5,20,23,18,0.939,43.7,47.7,41.2,9.89,6.7,194,16,11.0,0.00520,0.00691,93.2,80.6,12,547,0,107.3,3.14,.,0.00
15min,AgWx,evansfrm,411,05AUG2017:16:30:00,97.4,13.82,90.1,90.3,89.4,90.7,88.8,19,23,17,0.900,42.3,45.7,39.4,6.862,6.9,186,12,11.2,0.00491,0.00664,93.4,80.8,12,500,0,103.7,3.14,.,0.00
15min,AgWx,evansfrm,411,05AUG2017:16:45:00,97.2,13.82,89.0,89.2,89.7,90.3,88.9,19,22,17,0.974,42.4,46.1,39.2,5.261,5.6,186,15,9.5,0.00432,0.00579,93.7,81.0,12,456,0,98.2,3.14,.,0.00
15min,AgWx,evansfrm,411,05AUG2017:17:00:00,96.6,13.83,88.8,89.0,89.2,89.7,88.6,20,22,18,0.897,42.9,45.8,40.2,5.59,6.1,183,13,8.5,0.00408,0.00559,94.0,81.3,12,415,0,91.9,3.14,.,0.00
15min,AgWx,evansfrm,411,05AUG2017:17:15:00,96.0,13.83,88.7,88.8,89.0,89.6,88.5,19,22,17,0.877,42.0,45.0,39.7,3.639,5.4,186,16,9.4,0.00357,0.00493,94.0,81.7,12,366,0,90.4,3.14,.,0.00
15min,AgWx,evansfrm,411,05AUG2017:17:30:00,95.2,13.83,88.3,88.6,88.6,89.1,88.2,20,22,17,0.821,42.0,45.4,38.3,5.634,5.5,182,13,8.2,0.00324,0.00459,94.1,81.5,12,320,0,89.5,3.14,.,0.00
15min,AgWx,evansfrm,411,05AUG2017:17:45:00,94.4,13.74,87.6,87.9,88.0,88.7,87.3,21,25,17,0.993,43.2,47.9,38.1,3.727,4.7,182,15,8.3,0.00270,0.00385,94.1,81.5,12,273,0,88.5,3.14,.,0.00
15min,AgWx,evansfrm,411,05AUG2017:18:00:00,93.5,13.62,87.3,87.4,87.7,88.1,87.4,21,24,19,0.915,43.1,46.0,40.2,3.157,3.8,179,16,5.7,0.00214,0.00309,94.2,82.0,12,229,0,87.7,3.14,.,0.00
15min,AgWx,evansfrm,411,05AUG2017:18:15:00,92.7,13.51,86.9,87.5,87.2,87.6,86.8,24,27,18,0.827,46.1,48.7,39.0,1.841,2.1,158,13,3.2,0.00135,0.00187,94.3,82.0,12,186,0,86.5,3.15,.,0.00
15min,AgWx,evansfrm,411,05AUG2017:18:30:00,91.7,13.41,86.2,86.8,87.1,87.8,86.7,23,25,19,1.105,44.7,47.2,40.6,1.688,2.1,129,11,2.9,0.00102,0.00152,93.9,82.0,12,141,0,85.9,3.15,.,0.00
15min,AgWx,evansfrm,411,05AUG2017:18:45:00,90.5,13.31,84.0,84.5,85.5,86.7,84.4,27,31,23,1.133,47.9,50.7,44.3,1.118,1.5,147,21,2.2,0.00056,0.00090,93.9,82.4,12,105,0,84.0,3.15,.,0.00
15min,AgWx,evansfrm,411,05AUG2017:19:00:00,88.8,13.21,81.1,81.2,83.4,84.5,81.2,31,38,26,1.392,49.2,53.4,44.4,1.162,1.3,111,17,2.3,0.00022,0.00048,93.7,82.9,12,71,0,80.8,3.15,.,0.00
15min,AgWx,evansfrm,411,05AUG2017:19:15:00,86.6,13.13,77.8,78.1,79.8,81.2,78.1,36,42,32,1.211,50.8,54.2,47.4,1.096,0.8,185,57,2.8,-0.00018,-0.00006,93.3,82.8,12,42,0,76.3,3.15,.,0.00
15min,AgWx,evansfrm,411,05AUG2017:19:30:00,84.3,13.08,76.3,76.4,77.6,78.7,76.3,37,41,34,1.137,49.6,51.6,47.2,0.329,1.2,34,39,6.2,-0.00028,-0.00011,93.1,82.6,12,20,0,73.8,3.15,.,0.00
15min,AgWx,evansfrm,411,05AUG2017:19:45:00,82.1,13.06,73.3,73.1,75.3,77.4,73.1,40,45,36,1.254,49.0,50.6,47.3,1.14,0.8,103,25,2.1,-0.00015,-0.00020,92.7,82.6,12,5,0,70.9,3.15,.,0.00
15min,AgWx,evansfrm,411,05AUG2017:20:00:00,79.8,13.05,72.2,72.2,73.0,74.9,71.7,41,45,34,1.140,47.6,50.3,44.6,3.836,1.8,129,38,4.1,0.00001,0.00007,92.3,82.6,12,1,0,69.2,3.15,.,0.00
15min,AgWx,evansfrm,411,05AUG2017:20:15:00,77.6,13.05,68.3,68.3,70.3,72.8,68.3,42,46,35,1.090,45.9,48.1,42.7,0,1.2,114,31,3.4,-0.00008,-0.00009,91.8,82.8,12,0,0,66.9,3.15,.,0.00
15min,AgWx,evansfrm,411,05AUG2017:20:30:00,75.2,13.02,67.0,66.8,67.8,68.7,66.8,46,51,43,1.135,46.3,48.2,44.7,1.469,1.7,161,9.5,4.0,-0.00003,-0.00000,91.3,82.6,12,0,0,64.3,3.15,.,0.00
15min,AgWx,evansfrm,411,05AUG2017:20:45:00,73.2,13.02,66.2,66.2,66.6,67.1,66.0,53,54,50,1.183,48.8,49.6,47.8,3.42,3.1,171,9.8,4.5,0.00012,0.00021,90.9,82.6,12,0,0,63.9,3.15,.,0.00
15min,AgWx,evansfrm,411,05AUG2017:21:00:00,71.6,13.02,68.5,69.1,67.4,69.1,65.6,45,54,40,0.986,45.2,49.0,43.8,1.929,2.9,137,30,4.3,0.00016,0.00027,90.2,82.8,12,0,0,64.8,3.14,.,0.00
15min,AgWx,evansfrm,411,05AUG2017:21:15:00,70.3,13.01,67.8,68.3,67.4,69.4,65.7,45,50,40,1.027,45.3,46.7,43.7,3.508,3.0,173,8.2,5.0,0.00016,0.00027,89.5,82.8,12,0,0,64.4,3.14,.,0.00
15min,AgWx,evansfrm,411,05AUG2017:21:30:00,69.0,13.01,64.1,64.4,65.7,68.3,63.9,49,54,43,1.090,46.1,47.6,44.4,1.754,2.8,181,14,4.0,0.00012,0.00021,89.1,82.6,12,0,0,63.1,3.15,.,0.00
15min,AgWx,evansfrm,411,05AUG2017:21:45:00,67.7,13,65.3,65.9,63.9,65.9,62.3,50,55,43,0.935,44.8,47.1,42.6,3.858,3.5,141,15,5.1,0.00017,0.00028,88.6,82.8,12,0,0,61.7,3.14,.,0.00
15min,AgWx,evansfrm,411,05AUG2017:22:00:00,67.0,12.99,66.0,66.1,65.9,66.7,64.8,43,46,41,0.945,42.7,43.9,42.1,0.789,4.1,134,17,6.0,0.00029,0.00045,88.2,82.8,12,0,0,63.5,3.13,.,0.00
15min,AgWx,evansfrm,411,05AUG2017:22:15:00,66.1,12.92,63.6,64.2,64.1,66.0,62.3,47,51,44,0.930,43.2,44.2,42.3,4.56,3.2,182,28,4.8,0.00015,0.00026,87.7,82.4,12,0,0,61.6,3.15,.,0.00
15min,AgWx,evansfrm,411,05AUG2017:22:30:00,65.1,12.98,62.8,63.1,63.1,64.3,62.0,48,50,45,0.937,43.2,43.8,42.7,3.047,3.4,163,12,4.9,0.00017,0.00028,87.2,82.4,12,0,0,61.0,3.15,.,0.00
15min,AgWx,evansfrm,411,05AUG2017:22:45:00,64.3,12.97,60.3,60.5,61.7,63.3,60.5,48,52,46,0.919,42.0,43.4,40.7,0,2.0,154,33,4.0,0.00001,0.00005,86.7,82.4,12,0,0,59.3,3.16,.,0.00
15min,AgWx,evansfrm,411,05AUG2017:23:00:00,63.2,12.97,61.2,61.6,62.1,63.8,60.4,45,52,41,0.879,40.7,42.5,39.5,1.447,1.1,108,88,2.7,-0.00012,-0.00016,86.1,82.0,12,0,0,57.8,3.15,.,0.00
15min,AgWx,evansfrm,411,05AUG2017:23:15:00,62.2,12.96,60.2,60.9,59.7,61.5,58.3,51,56,44,0.805,41.3,42.7,38.9,2.916,2.2,151,16,3.6,0.00001,0.00005,85.7,82.4,12,0,0,57.2,3.15,.,0.00
15min,AgWx,evansfrm,411,05AUG2017:23:30:00,61.4,12.96,59.4,59.4,59.5,61.2,58.5,50,53,44,0.913,41.1,42.7,38.7,0,1.5,57,34,3.4,-0.00006,-0.00006,85.2,81.9,12,0,0,56.1,3.15,.,0.00
15min,AgWx,evansfrm,411,05AUG2017:23:45:00,60.4,12.95,57.9,58.0,58.4,59.4,57.2,54,56,53,0.916,41.9,42.7,40.7,0,0.6,67,10,2.7,-0.00021,-0.00030,84.6,82.0,12,0,0,54.7,3.16,.,0.00
15min,AgWx,drainfrm,410,05AUG2017:00:00:00,64.6,12.81,63.1,63.7,64.2,64.9,63.7,64,70,61,1.394,51.9,54.0,50.5,3.025,2.1,276,62,5.1,-0.00005,-0.00005,72.0,70.2,14,0,0,65.8,3.29,.,0.00
15min,AgWx,drainfrm,410,05AUG2017:00:15:00,64.4,12.79,64.1,64.8,63.2,64.8,62.5,68,73,60,1.250,52.4,54.4,50.2,3.025,2.6,148,62,5.3,-0.00002,-0.00001,71.9,70.2,14,0,0,65.6,3.29,.,0.00
15min,AgWx,drainfrm,410,05AUG2017:00:30:00,64.5,12.8,64.8,65.3,65.9,67.3,64.8,61,70,52,1.303,51.8,55.5,48.5,3.727,3.9,125,36,7.1,0.00013,0.00022,71.7,70.3,14,0,0,68.4,3.29,.,0.00
15min,AgWx,drainfrm,410,05AUG2017:00:45:00,64.7,12.8,65.7,66.2,66.8,67.9,65.1,54,61,48,1.347,49.8,52.5,46.7,2.368,3.0,215,22,7.9,0.00010,0.00018,71.6,70.2,14,0,0,68.0,3.29,.,0.00
15min,AgWx,drainfrm,410,05AUG2017:01:00:00,64.7,12.79,63.4,64.1,65.1,66.2,64.1,67,72,61,1.469,54.1,55.3,52.4,2.938,2.2,110,28,3.6,-0.00005,-0.00004,71.5,70.2,14,0,0,66.6,3.29,.,0.00
15min,AgWx,drainfrm,410,05AUG2017:01:15:00,64.2,12.77,60.9,61.3,62.7,64.0,61.2,72,76,68,1.312,53.6,55.8,51.8,2.784,3.0,316,70,6.4,-0.00001,0.00001,71.3,70.2,14,0,0,64.6,3.29,.,0.00
15min,AgWx,drainfrm,410,05AUG2017:01:30:00,63.4,12.78,61.8,62.9,61.8,62.9,61.3,70,73,66,1.302,51.8,53.2,50.5,1.359,1.2,311,64,2.6,-0.00015,-0.00021,71.3,70.0,14,0,0,62.8,3.29,.,0.00
15min,AgWx,drainfrm,410,05AUG2017:01:45:00,62.7,12.77,60.5,61.0,62.9,65.2,60.8,68,77,57,1.344,52.1,54.0,49.4,2.521,2.7,133,56,4.5,-0.00001,0.00001,71.1,70.0,14,0,0,64.1,3.29,.,0.00
15min,AgWx,drainfrm,410,05AUG2017:02:00:00,62.1,12.76,61.2,61.8,61.3,61.8,60.7,72,75,68,1.369,52.3,53.5,50.6,2.039,2.1,34,15,3.2,-0.00008,-0.00009,70.9,70.0,14,0,0,63.4,3.29,.,0.00
15min,AgWx,drainfrm,410,05AUG2017:02:15:00,61.9,12.76,63.4,64.2,61.8,64.3,61.2,70,74,59,1.324,51.9,53.2,49.4,2.148,2.5,37,40,4.8,-0.00005,-0.00004,70.9,70.0,14,0,0,64.3,3.29,.,0.00
15min,AgWx,drainfrm,410,05AUG2017:02:30:00,62.3,12.76,68.2,68.8,67.0,69.5,64.3,57,66,51,1.272,51.1,53.1,49.5,3.464,2.7,132,28,5.0,0.00006,0.00012,70.7,70.0,14,0,0,67.8,3.28,.,0.00
15min,AgWx,drainfrm,410,05AUG2017:02:45:00,62.8,12.75,68.8,69.8,66.7,69.8,65.5,59,64,53,1.361,51.8,53.7,50.6,3.683,2.4,21,89,5.7,0.00001,0.00005,70.7,69.8,14,0,0,67.9,3.28,.,0.00
15min,AgWx,drainfrm,410,05AUG2017:03:00:00,63.8,12.75,70.6,71.1,71.2,72.2,69.9,47,54,44,1.209,50.2,52.9,49.0,3.003,4.0,147,13,6.6,0.00027,0.00042,70.7,69.8,14,0,0,71.1,3.28,.,0.00
15min,AgWx,drainfrm,410,05AUG2017:03:15:00,64.9,12.74,69.8,70.6,71.3,72.4,69.9,46,50,44,1.160,49.5,50.7,48.4,2.85,4.3,152,19,7.6,0.00032,0.00050,70.5,70.0,14,0,0,71.4,3.28,.,0.00
15min,AgWx,drainfrm,410,05AUG2017:03:30:00,65.6,12.74,70.4,71.1,70.7,71.2,70.3,45,47,44,1.152,48.6,49.3,47.9,3.573,4.0,146,11,5.9,0.00029,0.00045,70.4,69.8,14,0,0,70.8,3.28,.,0.00
15min,AgWx,drainfrm,410,05AUG2017:03:45:00,65.7,12.74,68.2,68.9,69.3,71.0,68.2,48,51,44,1.165,49.0,50.0,47.9,1.644,1.8,228,46,4.5,-0.00001,0.00002,70.3,69.6,14,0,0,69.3,3.28,.,0.00
15min,AgWx,drainfrm,410,05AUG2017:04:00:00,65.6,12.73,72.1,72.9,70.1,72.9,68.9,46,48,40,1.165,48.1,49.3,47.1,4.56,3.0,266,46,5.2,0.00016,0.00027,70.2,70.0,14,0,0,69.5,3.28,.,0.00
15min,AgWx,drainfrm,410,05AUG2017:04:15:00,66.0,12.72,72.3,73.1,72.8,73.3,71.8,41,45,39,1.143,47.8,49.6,46.7,4.494,2.7,198,35,4.6,0.00016,0.00028,70.1,69.8,14,0,0,71.4,3.28,.,0.00
15min,AgWx,drainfrm,410,05AUG2017:04:30:00,66.3,12.73,68.5,69.4,71.1,72.9,69.4,44,48,40,1.159,48.0,49.2,46.6,3.464,4.1,137,17,5.3,0.00032,0.00049,70.0,69.4,14,0,0,71.2,3.28,.,0.00
15min,AgWx,drainfrm,410,05AUG2017:04:45:00,66.0,12.72,65.6,66.3,68.1,70.2,65.9,51,58,44,1.214,49.2,50.9,47.3,4.275,3.5,112,8.4,5.0,0.00018,0.00029,69.9,69.4,14,0,0,68.7,3.28,.,0.00
15min,AgWx,drainfrm,410,05AUG2017:05:00:00,65.3,12.72,67.6,68.1,67.1,68.5,66.2,53,57,49,1.174,49.4,50.6,48.6,4.757,3.0,126,30,6.7,0.00010,0.00019,69.7,69.6,14,0,0,67.1,3.28,.,0.00
15min,AgWx,drainfrm,410,05AUG2017:05:15:00,65.5,12.72,72.3,72.8,70.0,72.8,68.2,46,50,40,1.107,48.5,49.4,47.3,9.43,6.8,162,13,11.5,0.00053,0.00073,69.8,69.4,14,1,0,69.9,3.28,.,0.00
15min,AgWx,drainfrm,410,05AUG2017:05:30:00,66.2,12.72,70.8,71.3,71.9,73.4,71.2,43,45,40,1.139,48.0,49.0,47.1,3.201,5.2,160,14,7.3,0.00047,0.00068,69.5,69.4,14,5,0,71.6,3.28,.,0.00
15min,AgWx,drainfrm,410,05AUG2017:05:45:00,66.4,12.72,69.2,69.8,70.6,71.3,69.4,44,47,42,1.117,47.8,48.4,47.1,5.283,3.6,163,11,5.5,0.00013,0.00058,69.4,69.4,14,14,0,70.6,3.28,.,0.00
15min,AgWx,drainfrm,410,05AUG2017:06:00:00,66.6,12.72,69.7,70.3,69.7,70.4,69.3,46,48,44,1.131,48.1,48.7,47.3,5.919,5.2,158,12,8.4,0.00059,0.00122,69.4,69.3,14,26,0,70.3,3.28,.,0.00
15min,AgWx,drainfrm,410,05AUG2017:06:15:00,68.0,12.72,69.1,69.0,69.8,70.4,69.0,47,53,44,1.272,48.9,51.0,47.6,2.346,4.4,165,20,6.7,0.00052,0.00106,69.3,69.3,14,74,0,72.6,3.28,.,0.00
15min,AgWx,drainfrm,410,05AUG2017:06:30:00,70.5,12.72,67.6,67.4,67.9,68.9,66.9,54,57,52,1.204,50.9,52.6,48.7,6.993,2.6,40,37,7.0,0.00046,0.00075,69.3,69.4,14,113,0,73.6,3.28,.,0.00
15min,AgWx,drainfrm,410,05AUG2017:06:45:00,73.7,12.73,73.0,72.9,71.5,72.9,67.5,46,50,43,1.244,49.6,51.6,47.5,4.056,2.2,74,55,8.1,0.00075,0.00108,69.1,69.1,14,149,0,77.1,3.28,.,0.00
15min,AgWx,drainfrm,410,05AUG2017:07:00:00,76.8,12.72,73.5,73.0,73.3,74.1,72.5,44,48,41,1.323,50.1,52.1,48.6,3.595,1.8,89,66,5.7,0.00096,0.00126,69.0,69.3,14,164,0,79.6,3.28,.,0.00
15min,AgWx,drainfrm,410,05AUG2017:07:15:00,79.7,12.76,72.3,71.4,71.6,72.9,71.0,51,54,47,1.376,52.6,53.8,51.3,3.705,5.0,360,15,8.2,0.00163,0.00227,69.0,69.1,14,212,0,78.3,3.28,.,0.00
15min,AgWx,drainfrm,410,05AUG2017:07:30:00,82.1,12.78,73.4,72.7,72.2,73.0,71.4,52,55,48,1.428,53.5,54.9,52.2,5.831,5.8,11,12,8.1,0.00208,0.00281,68.9,69.1,14,278,0,77.6,3.27,.,0.00
15min,AgWx,drainfrm,410,05AUG2017:07:45:00,84.4,12.84,75.4,74.6,74.0,74.8,72.7,49,52,46,1.400,53.4,55.2,52.5,8.24,6.1,9.1,7.7,8.4,0.00250,0.00334,69.0,69.1,14,324,0,78.4,3.27,.,0.00
15min,AgWx,drainfrm,410,05AUG2017:08:00:00,86.6,12.88,76.6,76.1,75.2,76.1,74.6,47,50,43,1.378,53.6,55.0,52.1,6.642,6.6,15,8.3,8.7,0.00291,0.00387,69.0,68.9,14,366,0,80.0,3.27,.,0.00
15min,AgWx,drainfrm,410,05AUG2017:08:15:00,88.5,12.93,77.6,77.0,76.6,77.0,76.2,44,47,42,1.354,53.2,54.9,51.7,7.563,7.3,10,10,9.5,0.00336,0.00446,68.8,68.9,14,408,0,83.3,3.27,.,0.00
15min,AgWx,drainfrm,410,05AUG2017:08:30:00,90.5,13.01,78.4,78.0,77.6,78.3,77.0,42,45,40,1.392,52.7,54.6,51.2,4.735,6.7,9.8,9.2,9.3,0.00367,0.00478,68.9,68.9,14,453,0,86.6,3.27,.,0.00